DW6120 Weather Reports


Display with metric or nautical units.
time (UTC)temp
F
wind
direction
speed
MPH
gust
MPH
rain 1hr
in
rain 24hr
in
rain mn
in
humidity
%
barometer
mb
20260831043014 63 86 4.0 8.0 0.00 0.22 0.15 56 1010.6
20260831041514 63 95 5.0 8.0 0.00 0.22 0.15 53 1010.5
20260831040031 63 96 7.0 10.0 0.00 0.22 0.15 51 1010.4
20260831034516 63 90 5.0 8.0 0.00 0.22 0.15 56 1010.3
20260831033014 63 92 5.0 10.0 0.00 0.22 0.15 57 1010.3
20260831031514 64 111 4.0 8.0 0.00 0.22 0.15 59 1010.0
20260831030014 64 95 5.0 8.0 0.00 0.22 0.15 60 1010.0
20260831024511 64 105 5.0 9.0 0.00 0.22 0.15 61 1009.7
20260831023013 65 82 5.0 7.0 0.00 0.22 0.15 63 1009.6
20260831021510 67 95 5.0 7.0 0.00 0.22 0.15 61 1009.5
20260831020010 71 59 2.0 3.0 0.00 0.22 0.15 55 1009.3
20260831014510 72 23 1.0 3.0 0.00 0.22 0.15 52 1009.4
20260831013010 72 302 2.0 4.0 0.00 0.28 0.15 53 1009.4
20260831011510 72 321 1.0 6.0 0.00 0.28 0.15 53 1009.5
20260831010012 73 21 2.0 5.0 0.00 0.28 0.15 51 1009.4
20260831004507 74 304 3.0 5.0 0.00 0.28 0.15 49 1009.5
20260831003007 74 330 1.0 10.0 0.00 0.28 0.15 50 1009.6
20260831001509 74 308 3.0 7.0 0.00 0.28 0.15 47 1009.7
20260831000007 74 349 1.0 7.0 0.00 0.28 0.15 45 1009.6
20260830234510 72 31 4.0 8.0 0.00 0.28 0.15 52 1009.8
20260830233009 72 290 4.0 9.0 0.00 0.28 0.15 54 1009.9
20260830231509 72 338 1.0 4.0 0.00 0.28 0.15 57 1009.9
20260830230007 71 5 0.0 5.0 0.00 0.28 0.15 57 1009.9
20260830224506 72 5 1.0 7.0 0.00 0.28 0.15 54 1009.9
20260830223006 70 35 5.0 10.0 0.00 0.28 0.15 59 1010.0
20260830221504 69 78 5.0 8.0 0.00 0.28 0.15 63 1010.3
20260830220005 71 53 3.0 7.0 0.00 0.28 0.15 57 1010.4
20260830214504 71 51 4.0 11.0 0.00 0.28 0.15 55 1010.3
20260830213005 73 88 3.0 12.0 0.00 0.28 0.15 56 1010.2
20260830211504 74 34 6.0 14.0 0.00 0.28 0.15 53 1010.4
20260830210003 74 360 3.0 14.0 0.00 0.28 0.15 52 1010.4
20260830204505 76 219 7.0 12.0 0.00 0.28 0.15 46 1010.2
20260830203003 75 263 4.0 11.0 0.00 0.28 0.15 46 1010.5
20260830201502 76 240 5.0 10.0 0.00 0.28 0.15 41 1010.5
20260830200001 75 277 5.0 11.0 0.00 0.28 0.15 46 1010.6
20260830194600 76 250 4.0 10.0 0.00 0.28 0.15 40 1010.7
20260830193056 73 300 3.0 7.0 0.00 0.28 0.15 44 1010.8
20260830191556 73 250 2.0 7.0 0.00 0.28 0.15 51 1011.0
20260830190053 72 325 2.0 7.0 0.00 0.28 0.15 58 1011.2
20260830184556 71 232 1.0 6.0 0.00 0.28 0.15 59 1011.3
20260830183056 70 217 1.0 4.0 0.00 0.28 0.15 62 1011.5
20260830181550 68 247 3.0 10.0 0.00 0.28 0.15 64 1011.6
20260830180058 68 318 1.0 6.0 0.00 0.28 0.15 68 1011.6
20260830174554 68 338 2.0 7.0 0.00 0.28 0.15 71 1011.7
20260830173056 68 266 1.0 5.0 0.00 0.61 0.15 69 1011.6
20260830171543 66 24 1.0 4.0 0.00 0.61 0.15 72 1011.5
20260830170042 65 277 0.0 4.0 0.00 0.61 0.15 73 1011.4
20260830164543 64 277 1.0 8.0 0.00 0.61 0.15 76 1011.5
20260830163037 65 272 0.0 3.0 0.00 0.61 0.15 75 1011.2
20260830161537 64 272 1.0 3.0 0.00 0.61 0.15 77 1011.3
20260830160037 63 273 3.0 4.0 0.00 0.61 0.15 79 1011.3
20260830154537 63 113 0.0 3.0 0.00 0.61 0.15 84 1011.2
20260830153036 61 113 1.0 2.0 0.00 0.62 0.15 85 1011.4
20260830151536 59 113 3.0 7.0 0.00 0.62 0.15 85 1011.4
20260830150038 58 123 2.0 4.0 0.00 0.62 0.15 87 1011.6
20260830144534 56 89 3.0 6.0 0.00 0.62 0.15 86 1011.3
20260830143037 56 95 1.0 3.0 0.03 0.62 0.15 88 1011.1
20260830141548 55 90 2.0 9.0 0.03 0.62 0.15 88 1010.9
20260830140043 56 60 0.0 3.0 0.03 0.62 0.15 89 1011.4
20260830134534 57 40 1.0 6.0 0.03 0.62 0.15 87 1011.1
20260830133036 58 207 8.0 14.0 0.00 0.59 0.12 85 1011.5
20260830131532 58 125 2.0 11.0 0.00 0.59 0.12 85 1010.3
20260830130030 57 60 8.0 13.0 0.00 0.59 0.12 88 1010.3
20260830124530 57 92 5.0 11.0 0.00 0.59 0.12 89 1010.6
20260830123030 56 122 4.0 9.0 0.12 0.59 0.12 91 1010.6
20260830121528 55 84 2.0 6.0 0.12 0.59 0.12 91 1010.5
20260830120026 55 98 7.0 10.0 0.12 0.59 0.12 90 1010.3
20260830114551 56 44 3.0 13.0 0.12 0.59 0.12 88 1011.0
20260830113025 58 238 8.0 15.0 0.00 0.47 0.00 82 1011.8
20260830111525 58 115 0.0 4.0 0.00 0.47 0.00 81 1009.9
20260830110025 57 115 1.0 4.0 0.00 0.47 0.00 81 1009.8
20260830104518 58 116 1.0 4.0 0.00 0.47 0.00 81 1010.1
20260830103025 58 116 3.0 9.0 0.00 0.47 0.00 80 1010.2
20260830101517 57 138 2.0 5.0 0.00 0.47 0.00 80 1010.4
20260830100018 58 122 2.0 4.0 0.00 0.47 0.00 81 1010.0
20260830094517 57 57 1.0 9.0 0.00 0.47 0.00 82 1010.2
20260830093015 57 105 2.0 3.0 0.00 0.50 0.00 82 1010.5
20260830091514 57 105 3.0 6.0 0.00 0.50 0.00 80 1010.3
20260830090023 59 133 1.0 3.0 0.00 0.50 0.00 79 1010.5
20260830084509 59 178 0.0 3.0 0.00 0.50 0.00 78 1010.7
20260830083008 59 273 3.0 9.0 0.00 0.50 0.00 75 1009.8
20260830081507 59 144 4.0 7.0 0.00 0.50 0.00 76 1010.8
20260830080005 60 62 3.0 5.0 0.00 0.50 0.00 74 1010.1
20260830074502 61 61 2.0 7.0 0.00 0.50 0.00 70 1010.3
20260830073001 61 127 3.0 6.0 0.00 0.50 0.00 69 1009.7
20260830071558 62 132 1.0 7.0 0.00 0.50 0.00 67 1009.4
20260830070054 63 97 1.0 6.0 0.00 0.50 0.00 64 1009.8
20260830064552 64 56 5.0 8.0 0.00 0.50 0.00 60 1009.0
20260830063051 68 355 3.0 10.0 0.00 0.50 0.50 53 1008.7
20260830061550 68 130 12.0 22.0 0.01 0.50 0.50 49 1008.1
20260830060050 65 219 3.0 8.0 0.04 0.50 0.50 54 1009.1
20260830054553 67 168 7.0 19.0 0.06 0.50 0.50 50 1009.0
20260830053048 58 115 7.0 13.0 0.06 0.50 0.50 78 1009.0
20260830051550 60 137 8.0 17.0 0.06 0.50 0.50 71 1011.4
20260830050048 61 134 6.0 22.0 0.03 0.47 0.47 69 1013.2
20260830044549 64 105 16.0 31.0 0.01 0.44 0.44 63 1012.7